TimeCST,TemperatureF,Dew PointF,Humidity,Sea Level PressureIn,VisibilityMPH,Wind Direction,Wind SpeedMPH,Gust SpeedMPH,PrecipitationIn,Events,Conditions,WindDirDegrees,DateUTC
12:35 AM,48.2,44.6,87,30.22,4.0,North,6.9,-,0.00,Rain,Rain,360,2013-01-06 06:35:00
12:53 AM,48.0,44.1,86,30.22,4.0,North,8.1,-,0.01,Rain,Light Rain,10,2013-01-06 06:53:00
1:08 AM,46.4,44.6,93,30.22,7.0,North,8.1,-,0.00,Rain,Light Rain,360,2013-01-06 07:08:00
1:53 AM,46.9,44.1,90,30.22,6.0,North,9.2,-,0.00,Rain,Light Rain,360,2013-01-06 07:53:00
2:11 AM,46.4,44.6,93,30.21,2.0,North,8.1,-,0.07,Rain,Heavy Rain,10,2013-01-06 08:11:00
2:26 AM,46.4,44.6,93,30.21,4.0,North,9.2,-,0.10,Rain,Light Rain,360,2013-01-06 08:26:00
2:53 AM,46.9,44.1,90,30.21,3.0,North,10.4,-,0.11,Rain,Rain,360,2013-01-06 08:53:00
3:41 AM,46.4,44.6,93,30.21,5.0,North,10.4,-,0.03,Rain,Rain,360,2013-01-06 09:41:00
3:53 AM,46.9,44.1,90,30.21,4.0,North,12.7,-,0.06,Rain,Rain,360,2013-01-06 09:53:00
4:18 AM,48.2,44.6,87,30.21,5.0,North,11.5,-,0.10,Rain,Light Rain,350,2013-01-06 10:18:00
4:27 AM,48.2,44.6,87,30.21,9.0,North,11.5,-,0.10,Rain,Light Rain,360,2013-01-06 10:27:00
4:53 AM,46.9,44.1,90,30.22,10.0,North,11.5,-,0.10,,Overcast,10,2013-01-06 10:53:00
5:00 AM,46.4,44.6,93,30.21,10.0,NNE,12.7,-,N/A,,Overcast,20,2013-01-06 11:00:00
5:53 AM,46.9,44.1,90,30.23,3.0,North,15.0,21.9,0.00,Rain,Rain,10,2013-01-06 11:53:00
6:53 AM,46.9,44.1,90,30.25,4.0,North,13.8,-,0.01,Rain,Rain,10,2013-01-06 12:53:00
7:53 AM,46.9,44.1,90,30.27,10.0,North,13.8,-,0.00,Rain,Light Rain,10,2013-01-06 13:53:00
8:53 AM,46.9,44.1,90,30.28,10.0,North,12.7,-,0.00,,Overcast,10,2013-01-06 14:53:00
9:53 AM,48.0,44.1,86,30.28,10.0,NNE,16.1,-,N/A,,Overcast,20,2013-01-06 15:53:00
10:53 AM,48.9,45.0,86,30.29,10.0,NNE,12.7,20.7,N/A,,Overcast,30,2013-01-06 16:53:00
11:13 AM,50.0,44.6,82,30.28,10.0,NNE,13.8,-,N/A,,Overcast,20,2013-01-06 17:13:00
11:53 AM,50.0,46.0,86,30.27,10.0,NNE,13.8,-,N/A,,Overcast,20,2013-01-06 17:53:00
12:01 PM,51.8,46.4,82,30.26,10.0,NNE,12.7,-,N/A,,Overcast,20,2013-01-06 18:01:00
12:53 PM,53.1,46.0,77,30.24,10.0,North,12.7,-,N/A,,Overcast,10,2013-01-06 18:53:00
1:15 PM,53.6,46.4,77,30.24,10.0,North,13.8,-,N/A,,Overcast,10,2013-01-06 19:15:00
1:53 PM,54.0,45.0,72,30.24,10.0,North,11.5,-,N/A,,Overcast,10,2013-01-06 19:53:00
2:13 PM,53.6,44.6,72,30.23,10.0,NNE,11.5,-,N/A,,Overcast,20,2013-01-06 20:13:00
2:41 PM,55.4,44.6,67,30.23,10.0,North,15.0,-,N/A,,Overcast,360,2013-01-06 20:41:00
2:53 PM,55.0,45.0,69,30.23,10.0,NNE,10.4,-,N/A,,Overcast,20,2013-01-06 20:53:00
3:40 PM,55.4,44.6,67,30.23,10.0,North,12.7,-,N/A,,Overcast,10,2013-01-06 21:40:00
3:53 PM,55.0,45.0,69,30.23,10.0,North,12.7,-,N/A,,Overcast,10,2013-01-06 21:53:00
4:53 PM,54.0,44.1,69,30.24,10.0,NNE,9.2,-,N/A,,Overcast,20,2013-01-06 22:53:00
5:53 PM,50.0,42.1,74,30.26,10.0,North,4.6,-,N/A,,Partly Cloudy,10,2013-01-06 23:53:00
6:53 PM,50.0,42.1,74,30.27,10.0,North,3.5,-,N/A,,Clear,10,2013-01-07 00:53:00
7:53 PM,46.9,39.9,77,30.29,10.0,North,3.5,-,N/A,,Clear,10,2013-01-07 01:53:00
8:53 PM,45.0,39.0,80,30.30,10.0,North,6.9,-,N/A,,Clear,10,2013-01-07 02:53:00
9:53 PM,46.9,41.0,80,30.31,10.0,NNE,9.2,-,N/A,,Clear,20,2013-01-07 03:53:00
10:53 PM,46.9,39.9,77,30.30,10.0,NNE,9.2,-,N/A,,Clear,30,2013-01-07 04:53:00
11:53 PM,46.0,39.0,76,30.31,10.0,NNE,6.9,-,N/A,,Clear,20,2013-01-07 05:53:00